Theta_e
322 322 322 324 322 319 321 323 318 314 316 321 321 330 330 329 329 327 326 324 323 321 321 323 324 325 325 325 326 326 326 327 327 328 327 326 324 323
322 322 322 323 323 324 321 319 320 317 314 322 322 326 328 327 327 325 325 324 322 321 321 320 320 321 321 321 322 322 322 321 321 322 322 322 320 319
324 322 322 322 323 323 324 320 319 318 318 320 323 324 322 323 324 325 326 325 323 321 321 319 318 318 318 318 318 318 318 318 318 318 319 318 318 316
322 323 322 327 324 323 323 322 321 322 319 318 321 320 320 322 324 323 323 325 323 320 318 317 316 315 314 313 313 313 313 313 314 314 314 314 313 310
326 325 324 325 323 323 324 323 323 323 321 320 318 321 322 323 322 322 321 321 321 319 315 314 313 312 311 310 309 309 307 307 307 308 309 309 307 306
327 326 325 324 323 324 323 323 323 321 320 319 319 319 319 320 320 317 316 318 315 314 312 311 310 310 309 308 308 307 304 303 302 302 302 302 302 303
325 325 324 323 323 323 324 323 322 320 319 317 316 316 316 316 314 316 312 312 311 309 306 305 304 304 305 307 307 305 302 300 300 300 300 299 299 299
322 323 323 320 318 315 316 317 320 319 318 317 316 314 314 313 315 314 312 310 306 309 306 304 304 301 300 300 302 301 300 300 299 299 298 298 297 297
322 322 324 322 321 319 311 311 311 311 316 319 316 314 313 314 315 313 312 311 308 308 307 301 300 296 297 299 299 299 299 298 298 298 297 297 296 296
324 323 324 324 321 323 322 321 321 321 321 321 319 317 316 317 316 315 314 311 311 310 308 300 300 296 295 295 298 298 297 296 297 297 297 296 295 295
325 323 324 322 306 308 322 320 319 317 309 307 307 305 304 306 314 320 312 309 308 307 309 302 300 296 294 292 294 297 296 295 295 296 296 296 296 295
321 319 308 315 303 307 322 320 318 318 319 317 314 309 310 308 309 319 315 311 310 306 310 304 300 298 294 294 291 293 291 295 295 295 296 296 295 292
320 317 312 303 302 304 311 321 318 319 314 319 317 316 316 317 318 319 317 315 312 309 313 307 302 301 299 293 291 290 289 289 291 292 295 295 295 295
320 316 309 301 301 303 313 300 302 313 321 320 317 315 312 315 318 321 322 318 317 316 316 310 305 303 302 296 295 291 289 291 290 291 291 293 295 294
320 311 299 300 300 302 301 303 309 323 321 319 317 315 315 319 320 316 316 317 315 320 319 313 310 309 306 301 298 296 296 296 295 294 293 291 290 289
304 305 307 307 307 310 310 313 324 323 320 319 319 318 318 318 314 314 311 310 307 305 305 307 307 311 309 305 298 296 297 296 297 295 295 294 293 292
312 313 313 313 315 317 319 317 321 320 319 319 316 317 318 319 316 313 310 308 305 303 301 299 295 294 293 298 296 296 296 296 297 295 294 293 291 292
317 316 314 315 317 318 318 318 318 318 321 318 316 318 318 318 315 313 310 307 304 302 300 299 296 295 294 292 295 295 295 294 294 295 295 291 289 290
317 317 316 316 316 318 319 319 319 319 322 320 319 318 317 317 311 314 311 308 306 302 299 298 297 294 291 290 289 292 293 294 295 293 292 292 290 291
318 318 317 317 316 317 317 316 317 318 319 319 318 317 316 316 311 312 312 309 306 302 299 298 298 295 294 292 288 287 288 291 291 290 290 291 286 289
318 319 320 321 319 318 319 318 317 317 318 317 316 316 314 312 310 311 311 300 301 305 301 299 300 292 293 290 285 284 285 290 293 292 290 286 285 287
321 320 319 320 321 320 319 319 317 313 317 316 316 317 316 314 313 311 311 310 306 307 304 298 295 295 292 291 286 284 285 286 290 291 291 291 287 284
322 322 321 321 316 319 320 320 319 319 318 319 317 317 317 315 314 312 312 310 307 302 295 293 292 291 290 289 287 288 288 288 289 289 291 292 292 292
Wind_Speed
1 2 2 3 4 2 4 7 5 4 2 2 2 5 7 8 13 12 15 28 28 28 25 18 19 16 15 13 11 11 11 12 12 11 10 10 9 9
2 3 1 2 5 4 4 4 4 7 5 2 2 6 9 9 16 14 17 22 23 20 16 16 16 15 16 14 13 12 11 12 12 9 10 11 11 13
2 4 2 1 3 2 3 4 5 5 8 3 2 10 11 14 14 14 14 13 12 19 17 14 16 15 15 13 12 12 13 10 10 11 12 14 14 14
5 4 2 1 3 4 5 7 8 8 11 11 8 9 14 15 16 13 10 12 12 15 17 16 14 12 12 13 13 13 11 11 12 13 14 14 14 14
3 4 3 4 4 6 8 8 8 9 9 9 10 9 7 11 13 12 11 13 10 19 16 15 12 14 13 13 13 12 12 12 12 13 13 14 14 15
6 7 5 5 7 9 9 10 10 10 10 10 10 10 10 10 13 14 12 9 9 8 13 11 11 13 13 13 15 15 14 13 12 12 12 13 14 14
7 6 5 5 10 9 8 9 11 10 11 9 10 12 12 12 13 10 10 9 6 3 6 4 5 6 6 9 12 15 14 13 13 13 13 12 11 12
7 6 6 9 10 12 13 11 12 16 14 10 11 13 10 11 10 11 12 9 5 1 5 6 4 5 3 3 10 11 12 12 12 12 12 11 11 11
6 5 6 7 10 11 14 15 14 14 11 16 15 13 14 14 12 11 11 8 4 7 10 5 2 4 3 4 8 9 10 11 11 11 11 10 10 8
6 6 8 9 10 13 13 14 11 12 11 8 13 11 13 10 11 10 9 8 9 7 4 4 2 2 2 2 6 7 8 10 10 10 9 10 9 8
7 7 9 9 11 14 15 15 13 10 11 12 11 16 13 12 10 7 7 10 7 4 2 5 4 3 3 3 3 7 8 9 9 10 11 11 11 11
7 8 10 10 12 13 15 16 14 12 12 9 8 10 10 7 10 5 9 10 6 3 5 5 4 5 3 3 4 4 4 7 9 10 10 10 9 4
6 5 4 10 11 11 12 13 13 12 11 10 8 8 4 4 4 4 5 7 7 3 6 5 4 4 3 3 3 4 4 3 3 4 9 9 2 5
7 5 4 9 12 12 8 13 14 12 8 8 8 8 3 2 2 3 6 6 5 4 11 7 5 5 5 3 4 3 3 4 4 4 4 4 4 4
7 8 9 11 12 12 16 16 12 9 8 9 7 5 3 4 5 4 4 4 1 3 7 4 5 7 5 4 4 4 5 5 6 5 4 5 5 4
9 6 7 8 7 9 9 9 7 9 9 7 6 4 4 5 4 3 3 2 3 3 6 6 5 6 4 3 4 5 5 6 6 4 4 2 3 4
8 4 4 4 8 7 7 4 5 5 5 5 4 5 5 6 4 3 3 2 3 3 2 3 6 8 6 4 3 4 5 3 5 5 4 3 1 3
4 4 4 6 8 9 9 6 4 8 8 6 5 7 7 6 5 3 3 3 4 4 3 3 3 3 3 3 7 4 3 4 2 4 3 4 2 1
3 4 5 7 7 8 9 8 8 7 9 7 7 7 6 6 7 7 4 4 4 4 4 5 4 4 3 5 2 9 4 3 4 1 2 3 3 4
3 4 5 7 8 8 7 7 6 5 8 7 8 9 8 9 5 7 7 6 5 4 4 4 5 5 7 8 5 1 9 3 3 3 2 2 3 10
6 4 6 8 9 9 9 9 8 6 9 6 7 9 8 7 6 7 9 10 7 5 8 9 11 6 5 6 4 1 3 8 5 5 4 3 2 1
8 8 5 5 7 10 10 9 7 7 9 7 7 10 10 10 10 10 10 9 8 8 6 5 5 6 3 4 5 6 4 0 5 7 4 8 5 3
9 8 7 7 5 8 11 12 11 11 9 10 9 8 10 11 9 8 9 9 7 5 4 4 4 3 2 3 6 4 6 5 3 2 1 10 12 9
Wind_Direction
187 131 140 144 165 125 111 132 147 146 115 97 130 126 122 115 117 120 127 123 117 116 133 141 136 134 133 124 122 119 113 110 101 91 101 106 102 100
61 76 93 176 159 160 157 147 139 142 123 112 71 119 117 120 120 116 112 112 120 120 120 124 120 123 111 116 114 113 100 89 98 113 106 106 103 99
77 73 68 33 168 159 151 124 119 115 123 96 82 117 114 122 124 121 122 122 117 119 113 112 110 110 119 119 112 104 105 114 117 113 106 103 102 104
151 113 45 7 102 110 104 107 105 120 135 130 121 121 122 123 126 125 123 120 128 119 116 107 109 118 109 108 112 112 116 120 115 107 103 104 109 105
97 143 70 56 90 88 86 111 118 118 121 127 122 127 122 125 115 99 102 101 91 91 88 88 96 97 106 111 112 115 113 108 107 107 113 111 105 104
108 114 122 138 144 112 103 113 123 119 121 123 122 124 121 123 114 117 111 104 102 79 71 84 93 97 102 106 112 113 113 111 110 111 107 106 107 109
98 97 87 92 104 118 130 131 131 129 130 121 123 124 122 116 118 115 108 109 77 85 91 81 88 84 83 99 119 124 118 120 118 115 118 120 123 118
104 97 88 101 108 111 114 127 138 137 135 124 123 119 116 121 123 128 126 132 119 355 104 87 88 84 85 72 108 115 120 125 129 127 125 129 128 128
117 103 94 106 112 111 97 95 81 71 118 138 131 135 133 144 135 138 142 135 123 145 113 93 68 81 64 94 118 131 132 129 126 135 144 144 145 144
106 100 104 107 121 121 114 111 104 107 116 125 133 138 135 144 143 143 135 101 102 137 124 109 143 88 109 116 144 138 137 144 150 153 159 170 177 179
90 88 108 110 116 120 118 117 106 91 69 87 107 114 122 123 135 124 125 130 134 172 175 113 176 129 166 195 196 177 173 164 167 177 190 199 208 203
88 90 90 116 121 125 128 130 130 132 123 109 97 104 113 79 141 121 148 149 140 109 220 107 141 150 179 196 175 180 189 205 205 211 214 216 235 187
108 98 102 120 117 121 136 144 142 140 123 123 118 129 109 130 154 149 152 153 164 186 176 121 162 166 114 142 195 197 186 205 207 241 246 253 232 143
117 115 116 125 120 113 110 110 110 117 117 122 135 161 162 174 192 153 171 179 206 187 169 135 140 166 142 145 197 162 197 214 182 220 210 237 246 77
123 123 133 130 113 102 122 121 124 132 138 150 162 169 164 173 146 118 90 102 70 232 154 161 155 169 158 164 169 167 133 214 202 200 193 196 187 175
113 118 120 120 102 125 130 138 142 153 156 158 162 161 150 150 162 152 135 136 82 41 50 50 124 164 189 178 148 154 188 181 177 186 180 187 204 192
116 108 113 108 129 140 150 161 138 150 154 160 161 171 171 176 167 142 126 134 126 172 139 38 55 80 66 144 127 197 171 153 159 150 131 144 87 166
116 138 127 130 147 155 168 183 171 177 189 183 173 174 175 176 166 169 144 158 171 182 165 168 151 74 19 35 45 146 111 139 131 149 128 144 151 126
133 154 151 157 167 174 178 188 190 204 200 198 175 177 173 178 170 186 179 169 186 169 189 179 165 125 148 205 318 50 151 134 129 117 136 120 167 188
173 171 167 174 179 187 190 198 207 203 191 192 179 183 185 183 180 194 193 194 187 171 188 179 176 180 181 189 161 216 42 121 122 116 102 70 43 84
212 209 187 182 190 197 200 202 203 200 192 177 183 185 185 179 194 195 200 199 178 177 191 198 210 170 98 97 80 95 15 33 76 139 127 123 247 147
209 216 213 198 192 197 201 206 204 194 204 190 181 192 196 195 200 199 200 201 198 200 200 175 148 134 146 136 154 151 159 96 50 74 114 151 176 209
209 213 215 223 210 206 191 200 203 207 201 204 204 194 198 204 207 198 199 201 186 170 150 149 134 88 94 126 136 145 152 150 146 129 267 213 227 231